Location: La Silve
(44.2414°N, 5.8889°E)
Time: 17:37:05
(UTC+00:00)

MOS 1 Rocket - Pass Details

Date: 01 December 2020
Orbit: 614 x 831 km, 97.4° (Epoch: 23 January)

Event Time Altitude Azimuth Distance (km) Brightness Sun altitude
Exits shadow 18:52:47 37° 340° (NNW) 1,282 4.7 -30.5°
Maximum altitude 18:54:36 52° 289° (WNW) 1,022 4.3 -30.8°
Drops below altitude 10° 18:59:46 10° 214° (SSW) 2,392 6.4 -31.7°
Sets 19:02:07 0° 209° (SSW) 3,297 7.1 -32.1°
